• In Hungary
  • List of Countries
  • For 7 days
  • Water Temperature
  • Satellite Maps
  • Weather Map
  • News
  • Weather Widgets
  • user-avatar
    Login

    Hourly Weather Meszna

    Today, 24 September, Monday

    Time Temperature Precipitation Wind Pressure Humidity
    00:00 +13°C° 0.4 mm 8 mps 713 mmHg 79%
    01:00 +14°C° 0 mm 6 mps 714 mmHg 85%
    02:00 +11°C° 0.9 mm 7 mps 715 mmHg 85%
    03:00 +9°C° 0.9 mm 7 mps 716 mmHg 85%
    04:00 +6°C° 0.9 mm 8 mps 717 mmHg 84%
    05:00 +5°C° 0.3 mm 7 mps 719 mmHg 84%
    06:00 +5°C° 0.3 mm 7 mps 720 mmHg 84%
    07:00 +6°C° 0 mm 5 mps 721 mmHg 84%
    08:00 +5°C° 0.1 mm 6 mps 722 mmHg 80%
    09:00 +7°C° 0.1 mm 6 mps 723 mmHg 77%
    10:00 +6°C° 0.1 mm 7 mps 723 mmHg 73%
    11:00 +8°C° 0.2 mm 7 mps 724 mmHg 69%
    12:00 +8°C° 0.2 mm 7 mps 724 mmHg 65%
    13:00 +9°C° 0.2 mm 7 mps 725 mmHg 61%
    14:00 +9°C° 0.2 mm 7 mps 725 mmHg 62%
    15:00 +8°C° 0.2 mm 7 mps 725 mmHg 62%
    16:00 +8°C° 0.2 mm 6 mps 725 mmHg 63%
    17:00 +7°C° 0.1 mm 5 mps 725 mmHg 67%
    18:00 +6°C° 0.1 mm 5 mps 726 mmHg 72%
    19:00 +5°C° 0.1 mm 4 mps 726 mmHg 76%
    20:00 +5°C° 0 mm 4 mps 727 mmHg 77%
    21:00 +4°C° 0 mm 4 mps 727 mmHg 79%
    22:00 +4°C° 0 mm 3 mps 728 mmHg 80%
    23:00 +4°C° 0 mm 3 mps 728 mmHg 81%

    Tomorrow, 25 September, Tuesday

    Time Temperature Precipitation Wind Pressure Humidity
    00:00 +4°C° 0 mm 3 mps 728 mmHg 82%
    01:00 +3°C° 0 mm 3 mps 729 mmHg 83%
    02:00 +3°C° 0.1 mm 3 mps 729 mmHg 84%
    03:00 +3°C° 0.1 mm 3 mps 729 mmHg 85%
    04:00 +3°C° 0.1 mm 3 mps 730 mmHg 86%
    05:00 +3°C° 0 mm 3 mps 730 mmHg 85%
    06:00 +3°C° 0 mm 3 mps 731 mmHg 84%
    07:00 +3°C° 0 mm 3 mps 731 mmHg 83%
    08:00 +5°C° 0 mm 4 mps 732 mmHg 78%
    09:00 +6°C° 0 mm 4 mps 732 mmHg 73%
    10:00 +7°C° 0 mm 4 mps 733 mmHg 68%
    11:00 +7°C° 0.1 mm 4 mps 733 mmHg 64%
    12:00 +8°C° 0.1 mm 4 mps 733 mmHg 60%
    13:00 +10°C° 0.1 mm 4 mps 734 mmHg 57%
    14:00 +10°C° 0.2 mm 4 mps 734 mmHg 57%
    15:00 +10°C° 0.2 mm 4 mps 734 mmHg 57%
    16:00 +10°C° 0.2 mm 4 mps 734 mmHg 58%
    17:00 +8°C° 0 mm 3 mps 734 mmHg 62%
    18:00 +7°C° 0 mm 3 mps 735 mmHg 65%
    19:00 +5°C° 0 mm 2 mps 735 mmHg 69%
    20:00 +6°C° 0 mm 1 mps 735 mmHg 70%
    21:00 +5°C° 0 mm 1 mps 736 mmHg 71%
    22:00 +5°C° 0 mm 1 mps 736 mmHg 72%
    23:00 +4°C° 0 mm 1 mps 736 mmHg 73%

    Day after tomorrow, 26 September, Wednesday

    Time Temperature Precipitation Wind Pressure Humidity
    00:00 +4°C° 0 mm 1 mps 736 mmHg 74%
    01:00 +4°C° 0 mm 1 mps 736 mmHg 75%
    02:00 +4°C° 0 mm 1 mps 736 mmHg 76%
    03:00 +3°C° 0 mm 1 mps 736 mmHg 77%
    04:00 +3°C° 0 mm 1 mps 736 mmHg 77%
    05:00 +4°C° 0 mm 1 mps 737 mmHg 75%
    06:00 +5°C° 0 mm 1 mps 737 mmHg 72%
    07:00 +5°C° 0 mm 1 mps 737 mmHg 69%
    08:00 +7°C° 0 mm 1 mps 737 mmHg 60%
    09:00 +9°C° 0 mm 2 mps 737 mmHg 52%
    10:00 +12°C° 0 mm 2 mps 737 mmHg 43%
    11:00 +13°C° 0 mm 2 mps 737 mmHg 41%
    12:00 +12°C° 0 mm 3 mps 736 mmHg 39%
    13:00 +13°C° 0 mm 3 mps 736 mmHg 36%
    14:00 +13°C° 0 mm 3 mps 735 mmHg 40%
    15:00 +13°C° 0 mm 3 mps 734 mmHg 43%
    16:00 +12°C° 0 mm 3 mps 734 mmHg 46%
    17:00 +11°C° 0 mm 3 mps 734 mmHg 51%
    18:00 +9°C° 0 mm 3 mps 734 mmHg 55%
    19:00 +8°C° 0 mm 2 mps 733 mmHg 60%
    20:00 +7°C° 0 mm 2 mps 733 mmHg 60%
    21:00 +7°C° 0 mm 3 mps 733 mmHg 60%
    22:00 +7°C° 0 mm 3 mps 733 mmHg 60%
    23:00 +7°C° 0 mm 3 mps 733 mmHg 60%

    27 September, Thursday

    Time Temperature Precipitation Wind Pressure Humidity
    00:00 +5°C° 0 mm 3 mps 733 mmHg 60%
    01:00 +5°C° 0 mm 3 mps 733 mmHg 61%
    02:00 +5°C° 0 mm 3 mps 732 mmHg 60%
    03:00 +5°C° 0 mm 3 mps 732 mmHg 60%
    04:00 +5°C° 0 mm 3 mps 732 mmHg 59%
    05:00 +7°C° 0 mm 2 mps 732 mmHg 58%
    06:00 +7°C° 0 mm 2 mps 732 mmHg 57%
    07:00 +8°C° 0 mm 2 mps 732 mmHg 56%
    08:00 +11°C° 0 mm 3 mps 732 mmHg 51%
    09:00 +13°C° 0 mm 3 mps 732 mmHg 46%
    10:00 +17°C° 0 mm 3 mps 732 mmHg 41%
    11:00 +18°C° 0 mm 3 mps 732 mmHg 42%
    12:00 +19°C° 0 mm 3 mps 731 mmHg 43%
    13:00 +20°C° 0 mm 3 mps 731 mmHg 44%
    14:00 +20°C° 0 mm 3 mps 731 mmHg 47%
    15:00 +19°C° 0 mm 2 mps 730 mmHg 51%
    16:00 +19°C° 0 mm 2 mps 730 mmHg 55%
    17:00 +17°C° 0 mm 2 mps 730 mmHg 60%
    18:00 +15°C° 0 mm 2 mps 730 mmHg 65%
    19:00 +14°C° 0 mm 2 mps 729 mmHg 70%
    20:00 +13°C° 0 mm 2 mps 729 mmHg 70%
    21:00 +13°C° 0 mm 2 mps 729 mmHg 71%
    22:00 +12°C° 0 mm 2 mps 729 mmHg 72%
    23:00 +12°C° 0 mm 2 mps 728 mmHg 72%

    28 September, Friday

    Time Temperature Precipitation Wind Pressure Humidity
    00:00 +12°C° 0 mm 2 mps 728 mmHg 73%
    01:00 +12°C° 0 mm 2 mps 728 mmHg 74%
    02:00 +12°C° 0 mm 2 mps 727 mmHg 75%
    03:00 +10°C° 0 mm 2 mps 727 mmHg 76%
    04:00 +10°C° 0 mm 2 mps 726 mmHg 77%
    05:00 +12°C° 0 mm 2 mps 726 mmHg 75%
    06:00 +12°C° 0 mm 2 mps 726 mmHg 74%
    07:00 +13°C° 0 mm 2 mps 726 mmHg 72%
    08:00 +15°C° 0 mm 2 mps 726 mmHg 64%
    09:00 +17°C° 0 mm 2 mps 726 mmHg 56%
    10:00 +19°C° 0 mm 3 mps 726 mmHg 47%
    11:00 +20°C° 0 mm 3 mps 726 mmHg 44%
    12:00 +21°C° 0 mm 3 mps 726 mmHg 41%
    13:00 +21°C° 0 mm 3 mps 725 mmHg 38%
    14:00 +21°C° 0 mm 2 mps 725 mmHg 41%
    15:00 +20°C° 0 mm 2 mps 725 mmHg 44%
    16:00 +20°C° 0 mm 2 mps 724 mmHg 47%
    17:00 +19°C° 0 mm 1 mps 724 mmHg 53%
    18:00 +16°C° 0 mm 1 mps 724 mmHg 58%
    19:00 +12°C° 0 mm 0 mps 724 mmHg 64%
    20:00 +12°C° 0 mm 0 mps 724 mmHg 67%
    21:00 +11°C° 0 mm 0 mps 724 mmHg 70%
    22:00 +11°C° 0 mm 0 mps 724 mmHg 72%
    23:00 +11°C° 0 mm 1 mps 724 mmHg 75%

    29 September, Saturday

    Time Temperature Precipitation Wind Pressure Humidity
    00:00 +11°C° 0 mm 1 mps 724 mmHg 77%
    01:00 +11°C° 0 mm 1 mps 724 mmHg 80%
    02:00 +11°C° 0.1 mm 1 mps 724 mmHg 83%
    03:00 +10°C° 0.1 mm 2 mps 724 mmHg 86%
    04:00 +9°C° 0.1 mm 2 mps 724 mmHg 89%
    05:00 +10°C° 0.3 mm 2 mps 724 mmHg 90%
    06:00 +10°C° 0.3 mm 2 mps 725 mmHg 91%
    07:00 +10°C° 0.3 mm 3 mps 725 mmHg 92%
    08:00 +10°C° 0.1 mm 3 mps 726 mmHg 87%
    09:00 +11°C° 0.1 mm 3 mps 726 mmHg 83%
    10:00 +11°C° 0.1 mm 3 mps 727 mmHg 79%
    11:00 +11°C° 0 mm 3 mps 727 mmHg 74%
    12:00 +12°C° 0 mm 3 mps 727 mmHg 69%
    13:00 +12°C° 0 mm 3 mps 727 mmHg 64%
    14:00 +12°C° 0 mm 3 mps 727 mmHg 62%
    15:00 +12°C° 0 mm 3 mps 727 mmHg 60%
    16:00 +11°C° 0 mm 3 mps 727 mmHg 58%
    17:00 +10°C° 0 mm 3 mps 728 mmHg 63%
    18:00 +9°C° 0 mm 3 mps 728 mmHg 67%
    19:00 +7°C° 0 mm 2 mps 728 mmHg 71%
    20:00 +7°C° 0 mm 2 mps 728 mmHg 73%
    21:00 +6°C° 0 mm 2 mps 728 mmHg 74%
    22:00 +6°C° 0 mm 2 mps 729 mmHg 75%
    23:00 +5°C° 0 mm 2 mps 729 mmHg 75%
    Show more